Crew | Aerofun Virtual



 METAR AND TAF INFORMATION
METAR FOR EFHK
ADDS - METARS form results

(2312 UTC 26 February 2020)
Data provider http://aviationweather.gov/metar/data/
 
METAR text: EFHK 262250Z 05011KT CAVOK M04/M10 Q0997 NOSIG
Conditions at: EFHK (HELSINKI/VANTAA , FI) observed 2250 UTC 26 February 2020
Temperature: -4.0°C (25°F)
Dewpoint: -10.0°C (14°F) [RH = 63%]
Pressure (altimeter): 29.44 inches Hg (997.0 mb)
Winds: from the NE (50 degrees) at 13 MPH (11 knots; 5.7 m/s)
Visibility: 6 or more miles (10+ km)
Ceiling: ceiling and visibility are OK
Clouds: unknown
Weather: no significant weather observed at this time

METAR text: EFHK 262220Z 05010KT CAVOK M04/M10 Q0997 NOSIG
Conditions at: EFHK (HELSINKI/VANTAA , FI) observed 2220 UTC 26 February 2020
Temperature: -4.0°C (25°F)
Dewpoint: -10.0°C (14°F) [RH = 63%]
Pressure (altimeter): 29.44 inches Hg (997.0 mb)
Winds: from the NE (50 degrees) at 12 MPH (10 knots; 5.1 m/s)
Visibility: 6 or more miles (10+ km)
Ceiling: ceiling and visibility are OK
Clouds: unknown
Weather: no significant weather observed at this time

Forecast for: EFHK (HELSINKI/VANTAA , FI)
Text: TAF EFHK 262029Z 2621/2721 05013KT CAVOK
Forecast period: 2100 UTC 26 February 2020 to 2100 UTC 27 February 2020
Forecast type: FROM: standard forecast or significant change
Winds: from the NE (50 degrees) at 15 MPH (13 knots; 6.7 m/s)
Visibility: 6 or more miles 10+ km)
Ceiling: unknown
Clouds: missing
Weather: NSW  (no significant weather)

 AIRPORT MAP

 RUNWAY INFORMATION
Runway 04L Runway length 10039 ft Runway width 197 ft
Runway elevation 133 ft Runway displaced threshold 0 ft Runway heading 48
Runway 22R Runway length 10039 ft Runway width 197 ft
Runway elevation 178 ft Runway displaced threshold 196 ft Runway heading 228
Runway 04R Runway length 11286 ft Runway width 197 ft
Runway elevation 150 ft Runway displaced threshold 787 ft Runway heading 48
Runway 22L Runway length 11286 ft Runway width 197 ft
Runway elevation 147 ft Runway displaced threshold 0 ft Runway heading 228
Runway 15 Runway length 9518 ft Runway width 197 ft
Runway elevation 162 ft Runway displaced threshold 0 ft Runway heading 154
Runway 33 Runway length 9518 ft Runway width 197 ft
Runway elevation 146 ft Runway displaced threshold 0 ft Runway heading 334

 AIRPORT FREQUENCIES
Type APP Name APP Frequency 119.1 MHZ
Type APP Name Frequency 129.85 MHZ
Type ATIS Name HEL VOR Frequency 114.2 MHZ
Type ATIS Name Frequency 135.075 MHZ
Type DEL Name Frequency 118.125 MHZ
Type GND Name GND Frequency 121.8 MHZ
Type PMSV Name PMSV METRO Frequency 125.1 MHZ
Type RMP Name RMP Frequency 121.65 MHZ
Type TWR Name 22L/04R an Frequency 118.6 MHZ
Type TWR Name 22R/04L Frequency 118.85 MHZ

 AIRPORT NEAR NAVIGATION AIDS
Type NDB Name Espoo Frequency 381 KHZ
Type VOR-DME Name Helsinki Frequency 114200 KHZ
Type NDB Name Korso Frequency 322 KHZ